Total_Precipitation_Accumulation
1.52 1.52 1.50 1.43 1.43 1.38 1.41 1.33 1.18 0.96 0.73 0.51 0.40 0.33 0.39 0.44 0.67 0.67 0.54 0.54 0.46 0.35 0.27 0.22 0.16 0.13 0.13 0.16 0.19 0.22 0.26 0.27 0.24 0.17 0.14 0.13 0.13 0.12
1.33 1.37 1.38 1.39 1.43 1.43 1.45 1.45 1.34 1.12 0.92 0.72 0.59 0.49 0.54 0.52 0.62 0.53 0.57 0.71 0.59 0.45 0.33 0.24 0.18 0.13 0.11 0.10 0.10 0.10 0.11 0.10 0.10 0.11 0.10 0.10 0.11 0.11
1.01 1.04 1.10 1.16 1.23 1.26 1.34 1.38 1.37 1.26 0.95 0.83 0.72 0.62 0.64 0.64 0.67 0.60 0.63 0.65 0.58 0.51 0.40 0.30 0.25 0.19 0.15 0.12 0.09 0.09 0.08 0.08 0.08 0.09 0.09 0.10 0.09 0.07
0.75 0.81 0.87 0.93 1.01 1.06 1.10 1.14 1.23 1.27 1.14 0.97 0.82 0.68 0.62 0.64 0.78 0.82 0.81 0.73 0.70 0.74 0.66 0.49 0.39 0.31 0.22 0.16 0.12 0.09 0.09 0.09 0.08 0.08 0.09 0.09 0.09 0.09
0.50 0.54 0.63 0.70 0.79 0.86 0.89 0.96 1.06 1.13 1.18 1.04 0.94 0.86 0.72 0.67 0.77 0.79 0.87 1.02 0.96 0.99 1.06 0.86 0.62 0.46 0.34 0.26 0.20 0.16 0.13 0.10 0.08 0.07 0.08 0.10 0.10 0.11
0.48 0.47 0.50 0.51 0.55 0.65 0.77 0.93 1.04 1.16 1.21 1.12 1.07 1.03 0.92 0.83 0.87 0.93 1.00 1.08 1.15 1.04 1.05 1.01 0.90 0.75 0.58 0.47 0.39 0.31 0.26 0.22 0.20 0.16 0.13 0.11 0.10 0.11
0.46 0.49 0.51 0.47 0.44 0.46 0.48 0.64 0.81 1.00 1.14 1.18 1.17 1.18 1.10 1.02 0.93 0.98 1.09 1.20 1.30 1.29 1.18 1.05 1.00 0.86 0.75 0.66 0.57 0.50 0.45 0.39 0.34 0.28 0.23 0.18 0.14 0.12
0.50 0.53 0.51 0.46 0.48 0.45 0.44 0.46 0.54 0.65 0.82 0.92 0.99 1.04 1.08 1.14 1.19 1.22 1.24 1.30 1.36 1.36 1.20 1.20 1.12 1.01 0.86 0.71 0.69 0.68 0.63 0.55 0.46 0.37 0.29 0.23 0.19 0.17
0.47 0.61 0.67 0.60 0.59 0.61 0.62 0.54 0.46 0.43 0.54 0.71 0.83 0.87 0.94 1.03 1.21 1.28 1.31 1.30 1.21 1.23 1.09 1.16 1.09 0.98 0.90 0.84 0.80 0.72 0.69 0.62 0.52 0.44 0.38 0.32 0.27 0.24
0.42 0.54 0.79 0.83 0.73 0.69 0.72 0.81 0.71 0.54 0.51 0.54 0.68 0.77 0.80 0.95 1.23 1.43 1.39 1.20 1.14 1.16 1.05 1.06 1.03 0.92 0.84 0.80 0.82 0.71 0.65 0.57 0.51 0.45 0.39 0.34 0.31 0.28
0.36 0.48 0.64 0.79 0.73 0.69 0.69 0.75 0.78 0.67 0.59 0.58 0.52 0.59 0.69 0.85 1.08 1.31 1.38 1.31 1.19 1.14 0.97 0.86 0.90 0.91 0.92 0.86 0.81 0.77 0.66 0.58 0.51 0.44 0.39 0.33 0.29 0.27
0.22 0.38 0.53 0.54 0.50 0.55 0.67 0.78 0.87 0.71 0.60 0.66 0.63 0.65 0.67 0.84 1.13 1.30 1.35 1.27 1.15 1.12 1.02 0.90 0.87 0.87 1.05 1.04 0.85 0.78 0.74 0.71 0.63 0.54 0.46 0.38 0.34 0.28
0.14 0.28 0.37 0.35 0.34 0.41 0.53 0.66 0.80 0.65 0.67 0.79 0.81 0.78 0.84 0.90 1.01 1.12 1.25 1.29 1.15 1.00 0.95 1.00 1.04 0.93 0.86 0.92 0.94 0.84 0.73 0.68 0.64 0.58 0.51 0.44 0.36 0.27
0.15 0.21 0.25 0.22 0.22 0.26 0.33 0.45 0.56 0.64 0.72 0.83 0.89 0.84 0.79 0.85 0.90 0.93 1.02 1.09 1.03 0.96 0.86 0.76 0.79 0.74 0.65 0.61 0.66 0.76 0.76 0.70 0.62 0.58 0.53 0.53 0.45 0.35
0.13 0.17 0.18 0.19 0.22 0.24 0.27 0.35 0.49 0.68 0.84 0.84 0.77 0.73 0.74 0.80 0.79 0.88 0.97 1.01 1.00 0.96 0.83 0.65 0.60 0.60 0.55 0.50 0.50 0.54 0.64 0.69 0.65 0.58 0.52 0.48 0.42 0.37
0.13 0.13 0.14 0.19 0.22 0.23 0.29 0.40 0.55 0.75 0.82 0.74 0.70 0.60 0.61 0.74 0.77 0.76 0.80 0.84 0.89 0.91 0.81 0.72 0.65 0.57 0.54 0.51 0.49 0.49 0.47 0.50 0.55 0.56 0.53 0.48 0.42 0.36
0.10 0.16 0.21 0.28 0.34 0.40 0.50 0.57 0.58 0.62 0.68 0.61 0.65 0.59 0.56 0.63 0.65 0.63 0.63 0.60 0.61 0.63 0.64 0.63 0.65 0.60 0.53 0.51 0.51 0.50 0.49 0.43 0.40 0.45 0.50 0.50 0.46 0.41
0.12 0.21 0.29 0.37 0.43 0.50 0.55 0.56 0.55 0.56 0.59 0.56 0.55 0.55 0.49 0.49 0.50 0.50 0.51 0.52 0.54 0.52 0.47 0.43 0.44 0.49 0.51 0.55 0.52 0.46 0.46 0.46 0.45 0.43 0.40 0.37 0.37 0.37
0.10 0.22 0.42 0.47 0.43 0.47 0.51 0.49 0.42 0.36 0.36 0.37 0.36 0.35 0.34 0.35 0.38 0.38 0.39 0.43 0.45 0.42 0.42 0.40 0.37 0.36 0.37 0.37 0.38 0.35 0.41 0.42 0.39 0.38 0.36 0.31 0.28 0.28
0.06 0.13 0.26 0.30 0.32 0.36 0.34 0.31 0.24 0.19 0.18 0.18 0.18 0.19 0.21 0.23 0.24 0.28 0.28 0.27 0.32 0.33 0.34 0.35 0.32 0.28 0.28 0.29 0.28 0.27 0.26 0.31 0.30 0.28 0.28 0.27 0.26 0.29
0.07 0.11 0.14 0.16 0.16 0.15 0.14 0.13 0.11 0.11 0.10 0.09 0.11 0.14 0.15 0.15 0.15 0.15 0.19 0.22 0.21 0.22 0.25 0.28 0.26 0.27 0.26 0.28 0.29 0.27 0.23 0.25 0.25 0.21 0.22 0.23 0.21 0.18
0.05 0.05 0.06 0.06 0.05 0.05 0.05 0.06 0.06 0.08 0.08 0.07 0.07 0.09 0.11 0.11 0.10 0.09 0.09 0.10 0.13 0.16 0.18 0.22 0.24 0.23 0.21 0.23 0.24 0.23 0.21 0.20 0.22 0.27 0.24 0.20 0.16 0.11
0.03 0.02 0.02 0.02 0.03 0.03 0.04 0.04 0.04 0.07 0.09 0.08 0.07 0.07 0.09 0.09 0.09 0.09 0.08 0.07 0.08 0.10 0.13 0.16 0.19 0.19 0.19 0.18 0.18 0.19 0.20 0.19 0.18 0.19 0.19 0.18 0.14 0.11